Location: *
(43.0409°N, 0.1694°E)
Time: 12:27:50
(UTC+00:00)

NOSS 3-1 (C) - Pass Details

Date: 03 October 2023
Orbit: 672 x 1534 km, 63.4° (Epoch: 03 November)

Event Time Altitude Azimuth Distance (km) Brightness Sun altitude
Exits shadow 03:21:38 54° 210° (SSW) 1,635 4.3 -28.8°
Drops below altitude 10° 03:29:12 10° 165° (SSE) 3,623 6.4 -27.5°
Sets 03:32:23 0° 162° (SSE) 4,647 7.0 -27.0°
